EW6320 Weather Reports


time (UTC)temp
C
wind
direction
speed
KPH
gust
KPH
rain 1hr
cm
rain 24hr
cm
rain mn
cm
humidity
%
barometer
mb
20260906004142 32 336 0.0 0.0 0.00 0.00 0.00 60 1011.2
20260906003637 32 336 0.0 0.0 0.00 0.00 0.00 58 1011.0
20260906003137 33 336 0.0 0.0 0.00 0.00 0.00 57 1011.0
20260906002637 33 336 0.0 0.0 0.00 0.00 0.00 57 1011.1
20260906002130 33 336 0.0 0.0 0.00 0.00 0.00 57 1011.2
20260906002117 33 336 0.0 0.0 0.00 0.00 0.00 56 1011.2
20260906001129 33 336 0.0 0.0 0.00 0.00 0.00 55 1011.2
20260906000626 34 336 0.0 0.0 0.00 0.00 0.00 54 1011.2
20260906000131 34 313 0.0 0.0 0.00 0.00 0.00 53 1011.2
20260905235627 34 313 0.0 3.2 0.00 0.00 0.00 53 1011.3
20260905235127 35 313 0.0 3.2 0.00 0.00 0.00 52 1011.3
20260905234625 35 309 0.0 3.2 0.00 0.00 0.00 52 1011.2
20260905234123 35 309 1.6 4.8 0.00 0.00 0.00 52 1011.2
20260905233623 35 309 1.6 4.8 0.00 0.00 0.00 51 1011.1
20260905233123 35 324 1.6 6.4 0.00 0.00 0.00 51 1011.1
20260905232623 35 316 3.2 6.4 0.00 0.00 0.00 51 1011.1
20260905232122 35 298 1.6 6.4 0.00 0.00 0.00 50 1011.1
20260905231621 36 281 3.2 4.8 0.00 0.00 0.00 50 1011.1
20260905231114 36 321 1.6 4.8 0.00 0.00 0.00 50 1011.0
20260905230608 36 317 1.6 4.8 0.00 0.00 0.00 50 1011.0
20260905230109 36 335 3.2 6.4 0.00 0.00 0.00 48 1011.1
20260905225609 36 312 3.2 6.4 0.00 0.00 0.00 48 1011.1
20260905225105 36 13 3.2 14.5 0.00 0.00 0.00 48 1011.1
20260905224605 36 306 3.2 14.5 0.00 0.00 0.00 48 1011.0
20260905224101 36 300 4.8 14.5 0.00 0.00 0.00 47 1011.0
20260905223601 36 323 6.4 14.5 0.00 0.00 0.00 46 1010.9
20260905223100 37 324 4.8 14.5 0.00 0.00 0.00 46 1010.9
20260905222601 37 342 3.2 9.7 0.00 0.00 0.00 47 1010.9
20260905222057 37 330 4.8 16.1 0.00 0.00 0.00 46 1010.9
20260905221558 37 311 6.4 17.7 0.00 0.00 0.00 45 1011.0
20260905221053 37 324 6.4 19.3 0.00 0.00 0.00 46 1010.9
20260905220553 37 321 6.4 19.3 0.00 0.00 0.00 45 1010.8
20260905220052 37 321 6.4 16.1 0.00 0.00 0.00 46 1011.0
20260905215553 38 291 6.4 19.3 0.00 0.00 0.00 43 1010.8
20260905215048 38 32 8.0 19.3 0.00 0.00 0.00 42 1010.7
20260905214818 38 309 9.7 17.7 0.00 0.00 0.00 41 1010.7
20260905214045 38 314 8.0 20.9 0.00 0.00 0.00 41 1010.8
20260905213545 38 273 6.4 20.9 0.00 0.00 0.00 40 1010.8
20260905213045 38 314 6.4 20.9 0.00 0.00 0.00 40 1010.7
20260905212544 38 316 4.8 14.5 0.00 0.00 0.00 40 1010.8
20260905212041 38 315 6.4 20.9 0.00 0.00 0.00 39 1010.9
20260905211541 38 309 6.4 20.9 0.00 0.00 0.00 40 1010.9
20260905211038 38 298 4.8 12.9 0.00 0.00 0.00 41 1010.9
20260905210539 38 309 4.8 12.9 0.00 0.00 0.00 42 1010.9
20260905210043 38 265 4.8 12.9 0.00 0.00 0.00 42 1011.0
20260905205534 38 265 3.2 11.3 0.00 0.00 0.00 42 1011.1
20260905205306 37 19 3.2 11.3 0.00 0.00 0.00 44 1011.2
20260905204537 37 346 3.2 11.3 0.00 0.00 0.00 45 1011.2
20260905204035 37 316 6.4 17.7 0.00 0.00 0.00 45 1011.2
20260905203532 37 24 9.7 17.7 0.00 0.00 0.00 43 1011.2
20260905203032 37 302 8.0 20.9 0.00 0.00 0.00 42 1011.3
20260905202532 38 261 6.4 20.9 0.00 0.00 0.00 41 1011.3
20260905202033 38 313 8.0 19.3 0.00 0.00 0.00 42 1011.3
20260905201533 38 323 8.0 19.3 0.00 0.00 0.00 43 1011.4
20260905201036 37 292 6.4 17.7 0.00 0.00 0.00 42 1011.5
20260905200529 38 307 6.4 14.5 0.00 0.00 0.00 42 1011.4
20260905200030 38 227 4.8 14.5 0.00 0.00 0.00 42 1011.4
20260905195753 38 276 4.8 14.5 0.00 0.00 0.00 43 1011.5
20260905195027 37 278 4.8 14.5 0.00 0.00 0.00 44 1011.5
20260905195018 37 323 8.0 17.7 0.00 0.00 0.00 44 1011.5
20260905194022 37 250 6.4 17.7 0.00 0.00 0.00 45 1011.6
20260905193522 37 286 6.4 14.5 0.00 0.00 0.00 45 1011.7
20260905193240 37 300 6.4 14.5 0.00 0.00 0.00 44 1011.8
20260905192521 37 295 4.8 14.5 0.00 0.00 0.00 44 1011.8
20260905192012 38 315 6.4 20.9 0.00 0.00 0.00 43 1011.9
20260905191515 37 316 9.7 20.9 0.00 0.00 0.00 44 1012.1
20260905191008 37 269 9.7 20.9 0.00 0.00 0.00 42 1012.2
20260905190733 38 261 8.0 20.9 0.00 0.00 0.00 43 1012.2
20260905190004 37 333 9.7 19.3 0.00 0.00 0.00 43 1012.3
20260905185508 37 303 9.7 19.3 0.00 0.00 0.00 42 1012.3
20260905184958 37 286 8.0 19.3 0.00 0.00 0.00 43 1012.4
20260905184456 37 296 8.0 17.7 0.00 0.00 0.00 44 1012.4
20260905183957 37 275 4.8 14.5 0.00 0.00 0.00 46 1012.5
20260905183456 37 208 4.8 12.9 0.00 0.00 0.00 47 1012.6
20260905182952 37 287 4.8 19.3 0.00 0.00 0.00 47 1012.7
20260905182450 36 346 4.8 19.3 0.00 0.00 0.00 48 1012.7
20260905181949 36 104 8.0 19.3 0.00 0.00 0.00 50 1012.7
20260905181705 36 309 6.4 19.3 0.00 0.00 0.00 49 1012.7
20260905180944 36 277 3.2 12.9 0.00 0.00 0.00 49 1012.7
20260905180444 36 300 4.8 12.9 0.00 0.00 0.00 51 1012.8
20260905175940 36 316 8.0 16.1 0.00 0.00 0.00 51 1012.8
20260905175656 36 296 6.4 16.1 0.00 0.00 0.00 51 1012.9
20260905174938 36 315 4.8 12.9 0.00 0.00 0.00 52 1012.9
20260905174434 35 355 4.8 12.9 0.00 0.00 0.00 51 1012.9
20260905173932 36 304 4.8 12.9 0.00 0.00 0.00 53 1012.9
20260905173432 35 301 4.8 12.9 0.00 0.00 0.00 51 1013.0
20260905172928 36 316 3.2 9.7 0.00 0.00 0.00 51 1012.8
20260905172426 35 315 4.8 11.3 0.00 0.00 0.00 53 1012.9
20260905171929 35 293 3.2 11.3 0.00 0.00 0.00 52 1013.0
20260905171424 36 275 3.2 11.3 0.00 0.00 0.00 52 1013.0
20260905170923 36 286 4.8 11.3 0.00 0.00 0.00 52 1013.2
20260905170636 35 297 4.8 11.3 0.00 0.00 0.00 53 1013.2
20260905165918 35 310 4.8 11.3 0.00 0.00 0.00 54 1013.4
20260905165636 35 240 4.8 11.3 0.00 0.00 0.00 53 1013.5
20260905164912 35 318 4.8 11.3 0.00 0.00 0.00 53 1013.6
20260905164412 35 240 4.8 11.3 0.00 0.00 0.00 53 1013.7
20260905163911 35 173 4.8 12.9 0.00 0.00 0.00 53 1013.8
20260905163629 35 250 4.8 12.9 0.00 0.00 0.00 54 1013.8
20260905162906 34 296 6.4 16.1 0.00 0.00 0.00 55 1013.8
20260905162406 34 248 6.4 16.1 0.00 0.00 0.00 56 1013.7
20260905162121 34 309 4.8 11.3 0.00 0.00 0.00 54 1013.7
20260905161359 33 320 4.8 11.3 0.00 0.00 0.00 56 1013.7
20260905160900 33 287 6.4 11.3 0.00 0.00 0.00 55 1013.9
20260905160613 33 307 6.4 12.9 0.00 0.00 0.00 56 1013.9
20260905155854 33 258 6.4 12.9 0.00 0.00 0.00 56 1013.9
20260905155354 33 230 6.4 12.9 0.00 0.00 0.00 56 1013.8
20260905154852 33 309 6.4 12.9 0.00 0.00 0.00 56 1013.9
20260905154352 33 306 4.8 12.9 0.00 0.00 0.00 56 1013.9
20260905154339 33 265 4.8 12.9 0.00 0.00 0.00 57 1013.9
20260905153352 33 296 6.4 12.9 0.00 0.00 0.00 57 1014.0
20260905152853 32 314 4.8 11.3 0.00 0.00 0.00 56 1014.0
20260905152346 32 259 4.8 9.7 0.00 0.00 0.00 58 1013.9
20260905151846 32 254 6.4 11.3 0.00 0.00 0.00 57 1014.0
20260905151346 32 286 6.4 12.9 0.00 0.00 0.00 58 1014.0
20260905150839 32 244 6.4 12.9 0.00 0.00 0.00 57 1013.8
20260905150340 32 250 6.4 12.9 0.00 0.00 0.00 58 1013.9
20260905145836 32 302 4.8 12.9 0.00 0.00 0.00 58 1014.0
20260905145336 31 300 4.8 11.3 0.00 0.00 0.00 60 1013.9
20260905144836 31 240 4.8 11.3 0.00 0.00 0.00 61 1013.9
20260905144335 31 275 4.8 11.3 0.00 0.00 0.00 61 1013.9
20260905143836 31 240 6.4 12.9 0.00 0.00 0.00 61 1013.9
20260905143330 31 290 6.4 14.5 0.00 0.00 0.00 61 1013.9
20260905142829 31 299 6.4 14.5 0.00 0.00 0.00 61 1013.9
20260905142329 31 300 4.8 12.9 0.00 0.00 0.00 62 1013.9
20260905141830 31 300 4.8 12.9 0.00 0.00 0.00 63 1013.9
20260905141329 30 287 4.8 8.0 0.00 0.00 0.00 64 1013.9
20260905140828 30 284 3.2 8.0 0.00 0.00 0.00 64 1013.9
20260905140326 30 257 3.2 6.4 0.00 0.00 0.00 65 1014.0
20260905135820 30 248 3.2 8.0 0.00 0.00 0.00 64 1014.2
20260905135320 30 296 3.2 8.0 0.00 0.00 0.00 65 1014.0
20260905134819 30 275 3.2 6.4 0.00 0.00 0.00 67 1014.0
20260905134320 30 261 1.6 6.4 0.00 0.00 0.00 67 1014.0
20260905134048 29 258 1.6 4.8 0.00 0.00 0.00 68 1014.0
20260905133317 29 236 1.6 4.8 0.00 0.00 0.00 69 1014.0
20260905132818 28 244 1.6 4.8 0.00 0.00 0.00 70 1014.0
20260905132317 28 238 0.0 4.8 0.00 0.00 0.00 71 1014.0
20260905131817 28 217 0.0 0.0 0.00 0.00 0.00 71 1013.9
20260905131315 28 144 0.0 0.0 0.00 0.00 0.00 72 1014.0
20260905131300 27 144 0.0 0.0 0.00 0.00 0.00 72 1014.0
20260905130314 27 144 0.0 0.0 0.00 0.00 0.00 73 1013.9
20260905125809 27 93 0.0 0.0 0.00 0.00 0.00 75 1013.9
20260905125531 27 93 0.0 0.0 0.00 0.00 0.00 75 1013.9
20260905124809 26 93 0.0 0.0 0.00 0.00 0.00 76 1013.8
20260905124310 26 93 0.0 0.0 0.00 0.00 0.00 77 1013.7
20260905123805 26 93 0.0 0.0 0.00 0.00 0.00 78 1013.7
20260905123525 25 93 0.0 0.0 0.00 0.00 0.00 78 1013.7
20260905122802 25 93 0.0 0.0 0.00 0.00 0.00 80 1013.8
20260905122302 25 93 0.0 0.0 0.00 0.00 0.00 81 1013.8
20260905121801 24 93 0.0 0.0 0.00 0.00 0.00 82 1013.7
20260905121301 24 93 0.0 0.0 0.00 0.00 0.00 83 1013.6
20260905121242 23 93 0.0 0.0 0.00 0.00 0.00 83 1013.6
20260905120517 23 93 0.0 0.0 0.00 0.00 0.00 83 1013.5
20260905115754 23 109 0.0 0.0 0.00 0.00 0.00 83 1013.5
20260905115254 23 115 0.0 0.0 0.00 0.00 0.00 83 1013.5
20260905115238 23 115 0.0 0.0 0.00 0.00 0.00 82 1013.5
20260905114254 24 115 0.0 0.0 0.00 0.00 0.00 82 1013.5
20260905113752 24 156 0.0 0.0 0.00 0.00 0.00 81 1013.4
20260905113251 24 156 0.0 0.0 0.00 0.00 0.00 81 1013.3
20260905112748 24 156 0.0 0.0 0.00 0.00 0.00 80 1013.4
20260905112250 24 156 0.0 0.0 0.00 0.00 0.00 80 1013.4
20260905111742 24 156 0.0 0.0 0.00 0.00 0.00 80 1013.5
20260905111242 25 156 0.0 0.0 0.00 0.00 0.00 79 1013.3
20260905110743 25 156 0.0 0.0 0.00 0.00 0.00 78 1013.4
20260905110451 25 156 0.0 0.0 0.00 0.00 0.00 79 1013.3
20260905105733 24 156 0.0 0.0 0.00 0.00 0.00 79 1013.3
20260905105235 24 156 0.0 0.0 0.00 0.00 0.00 80 1013.3
20260905104734 24 156 0.0 0.0 0.00 0.00 0.00 80 1013.3
20260905104233 24 156 0.0 0.0 0.00 0.00 0.00 80 1013.3
20260905103729 24 156 0.0 0.0 0.00 0.00 0.00 81 1013.2
20260905103228 24 156 0.0 0.0 0.00 0.00 0.00 81 1013.3
20260905102731 24 156 0.0 0.0 0.00 0.00 0.00 82 1013.3
20260905102221 24 156 0.0 0.0 0.00 0.00 0.00 82 1013.3
20260905101722 24 156 0.0 0.0 0.00 0.00 0.00 81 1013.3
20260905101223 24 156 0.0 0.0 0.00 0.00 0.00 80 1013.3
20260905100714 25 253 0.0 0.0 0.00 0.00 0.00 80 1013.3
20260905100432 24 253 0.0 0.0 0.00 0.00 0.00 81 1013.3
20260905095715 24 253 0.0 0.0 0.00 0.00 0.00 81 1013.2
20260905095209 24 253 0.0 0.0 0.00 0.00 0.00 81 1013.2
20260905094936 24 253 0.0 0.0 0.00 0.00 0.00 80 1013.2
20260905094213 25 253 0.0 0.0 0.00 0.00 0.00 80 1013.2
20260905094150 25 253 0.0 0.0 0.00 0.00 0.00 79 1013.2
20260905093209 25 253 0.0 0.0 0.00 0.00 0.00 78 1013.1
20260905092712 25 253 0.0 0.0 0.00 0.00 0.00 78 1013.2
20260905092207 25 253 0.0 0.0 0.00 0.00 0.00 78 1013.1
20260905091707 25 253 0.0 0.0 0.00 0.00 0.00 78 1013.1
20260905091206 25 253 0.0 0.0 0.00 0.00 0.00 78 1013.0
20260905090928 25 253 0.0 0.0 0.00 0.00 0.00 78 1013.1
20260905090209 25 253 0.0 0.0 0.00 0.00 0.00 78 1013.1
20260905085659 25 253 0.0 0.0 0.00 0.00 0.00 78 1013.2
20260905085159 25 253 0.0 0.0 0.00 0.00 0.00 78 1013.2
20260905084703 25 253 0.0 0.0 0.00 0.00 0.00 77 1013.2
20260905084153 25 253 0.0 0.0 0.00 0.00 0.00 77 1013.2
20260905083653 25 253 0.0 0.0 0.00 0.00 0.00 76 1013.2
20260905083156 26 253 0.0 0.0 0.00 0.00 0.00 76 1013.2
20260905082651 26 253 0.0 0.0 0.00 0.00 0.00 76 1013.3
20260905082151 26 253 0.0 0.0 0.00 0.00 0.00 75 1013.3
20260905081647 26 253 0.0 0.0 0.00 0.00 0.00 75 1013.3
20260905081145 26 253 0.0 0.0 0.00 0.00 0.00 75 1013.3
20260905080645 26 253 0.0 0.0 0.00 0.00 0.00 73 1013.3
20260905080141 26 253 0.0 0.0 0.00 0.00 0.00 72 1013.3
20260905075640 26 253 0.0 0.0 0.00 0.00 0.00 73 1013.3
20260905075139 27 253 0.0 0.0 0.00 0.00 0.00 72 1013.4
20260905074636 27 253 0.0 0.0 0.00 0.00 0.00 72 1013.3
20260905074133 27 253 0.0 0.0 0.00 0.00 0.00 72 1013.3
20260905073633 27 253 0.0 0.0 0.00 0.00 0.00 72 1013.2
20260905073129 27 253 0.0 0.0 0.00 0.00 0.00 72 1013.2
20260905072845 27 253 0.0 0.0 0.00 0.00 0.00 72 1013.3
20260905072127 27 253 0.0 0.0 0.00 0.00 0.00 71 1013.4
20260905071622 27 253 0.0 0.0 0.00 0.00 0.00 71 1013.5
20260905071121 27 253 0.0 0.0 0.00 0.00 0.00 71 1013.4
20260905070621 27 253 0.0 0.0 0.00 0.00 0.00 71 1013.4
20260905070118 27 253 0.0 3.2 0.00 0.00 0.00 71 1013.4
20260905065615 27 253 0.0 3.2 0.00 0.00 0.00 71 1013.3
20260905065116 27 242 1.6 3.2 0.00 0.00 0.00 71 1013.3
20260905064611 27 242 0.0 3.2 0.00 0.00 0.00 71 1013.3
20260905064109 27 242 0.0 3.2 0.00 0.00 0.00 72 1013.4
20260905063609 27 274 0.0 0.0 0.00 0.00 0.00 72 1013.4
20260905063104 26 9 0.0 0.0 0.00 0.00 0.00 73 1013.5
20260905062603 26 9 0.0 0.0 0.00 0.00 0.00 74 1013.5
20260905062103 26 9 0.0 0.0 0.00 0.00 0.00 74 1013.6
20260905061821 26 87 0.0 0.0 0.00 0.00 0.00 74 1013.6
20260905061057 26 87 0.0 0.0 0.00 0.00 0.00 74 1013.6
20260905060557 26 87 0.0 0.0 0.00 0.00 0.00 74 1013.7
20260905060053 26 87 0.0 0.0 0.00 0.00 0.00 74 1013.8
20260905055551 26 87 0.0 0.0 0.00 0.00 0.00 74 1013.7
20260905055051 26 87 0.0 0.0 0.00 0.00 0.00 73 1013.8
20260905054546 26 87 0.0 0.0 0.00 0.00 0.00 72 1013.8
20260905054045 27 87 0.0 0.0 0.00 0.00 0.00 72 1013.9
20260905053545 27 87 0.0 0.0 0.00 0.00 0.00 72 1013.9
20260905053043 26 87 0.0 0.0 0.00 0.00 0.00 72 1013.9
20260905052546 26 87 0.0 0.0 0.00 0.00 0.00 73 1013.8
20260905052306 26 87 0.0 0.0 0.00 0.00 0.00 74 1013.8
20260905051537 26 87 0.0 0.0 0.00 0.00 0.00 74 1013.7
20260905051530 26 105 0.0 0.0 0.00 0.00 0.00 73 1013.6
20260905050531 27 105 0.0 0.0 0.00 0.00 0.00 71 1013.8
20260905050031 27 105 0.0 0.0 0.00 0.00 0.00 70 1013.6
20260905045535 27 105 0.0 0.0 0.00 0.00 0.00 70 1013.6
20260905045026 27 105 0.0 0.0 0.00 0.00 0.00 71 1013.6
20260905044525 27 105 0.0 0.0 0.00 0.00 0.00 70 1013.6
20260905044028 27 105 0.0 0.0 0.00 0.00 0.00 70 1013.5
20260905043738 28 105 0.0 0.0 0.00 0.00 0.00 68 1013.5
20260905043019 28 105 0.0 0.0 0.00 0.00 0.00 66 1013.5
20260905042523 28 105 0.0 0.0 0.00 0.00 0.00 66 1013.4
20260905042232 28 105 0.0 0.0 0.00 0.00 0.00 66 1013.4
20260905041731 28 105 0.0 0.0 0.00 0.00 0.00 66 1013.4
20260905041017 28 105 0.0 0.0 0.00 0.00 0.00 66 1013.5
20260905040732 28 105 0.0 0.0 0.00 0.00 0.00 67 1013.4
20260905040007 28 105 0.0 0.0 0.00 0.00 0.00 66 1013.4
20260905035731 28 105 0.0 0.0 0.00 0.00 0.00 66 1013.3
20260905035000 28 105 0.0 0.0 0.00 0.00 0.00 66 1013.4
20260905034501 28 105 0.0 0.0 0.00 0.00 0.00 67 1013.5
20260905034005 28 105 0.0 0.0 0.00 0.00 0.00 67 1013.4
20260905033459 28 105 0.0 0.0 0.00 0.00 0.00 68 1013.5
20260905033000 28 105 0.0 0.0 0.00 0.00 0.00 69 1013.5
20260905032458 27 105 0.0 0.0 0.00 0.00 0.00 71 1013.5
20260905031959 27 105 0.0 0.0 0.00 0.00 0.00 72 1013.6
20260905031458 27 105 0.0 3.2 0.00 0.00 0.00 73 1013.6
20260905030959 27 105 0.0 3.2 0.00 0.00 0.00 73 1013.6
20260905030727 27 105 1.6 3.2 0.00 0.00 0.00 73 1013.7
20260905025953 27 105 1.6 3.2 0.00 0.00 0.00 72 1013.6
20260905025453 27 105 1.6 3.2 0.00 0.00 0.00 72 1013.5
20260905024952 27 88 0.0 1.6 0.00 0.00 0.00 72 1013.5
20260905024449 27 88 1.6 1.6 0.00 0.00 0.00 72 1013.6
20260905024209 27 88 1.6 1.6 0.00 0.00 0.00 72 1013.5
20260905023449 27 88 1.6 1.6 0.00 0.00 0.00 71 1013.5
20260905022949 28 88 1.6 3.2 0.00 0.00 0.00 71 1013.5
20260905022448 28 88 1.6 3.2 0.00 0.00 0.00 70 1013.5
20260905021949 28 88 1.6 3.2 0.00 0.00 0.00 69 1013.5
20260905021449 28 88 1.6 3.2 0.00 0.00 0.00 68 1013.3
20260905020946 28 88 1.6 3.2 0.00 0.00 0.00 68 1013.3
20260905020447 28 88 1.6 3.2 0.00 0.00 0.00 67 1013.3
20260905015947 29 88 0.0 3.2 0.00 0.00 0.00 66 1013.3
20260905015447 29 88 0.0 0.0 0.00 0.00 0.00 66 1013.3
20260905015206 29 88 0.0 3.2 0.00 0.00 0.00 66 1013.2
20260905014446 29 88 1.6 3.2 0.00 0.00 0.00 65 1013.2
20260905013947 29 88 1.6 3.2 0.00 0.00 0.00 65 1013.1
20260905013451 29 88 1.6 3.2 0.00 0.00 0.00 66 1013.1
20260905012941 29 88 1.6 3.2 0.00 0.00 0.00 66 1013.0
20260905012441 29 75 1.6 3.2 0.00 0.00 0.00 65 1013.0
20260905012206 30 33 1.6 3.2 0.00 0.00 0.00 64 1013.0
20260905011437 30 290 0.0 3.2 0.00 0.00 0.00 63 1012.9
20260905010937 31 290 0.0 1.6 0.00 0.00 0.00 61 1013.0
20260905010653 31 290 0.0 0.0 0.00 0.00 0.00 60 1013.0
20260905005930 31 290 0.0 0.0 0.00 0.00 0.00 60 1012.9
20260905005431 31 290 0.0 0.0 0.00 0.00 0.00 59 1013.0
20260905004927 31 290 0.0 0.0 0.00 0.00 0.00 59 1012.8
20260905004427 32 290 0.0 0.0 0.00 0.00 0.00 59 1012.8